Location: Detroit
(42.3310°N, 83.0460°W)
Time: 01:28:42
(UTC-04:00)

A-11 Canister half - Pass Details

Date: 13 February 2023
Orbit: 1526 x 1682 km, 47.3° (Epoch: 20 March)

Event Time Altitude Azimuth Distance (km) Brightness Sun altitude
Rises 06:15:41 0° 273° (W) 4,684 - -14.6°
Reaches altitude 10° 06:18:46 10° 276° (W) 3,696 - -14.0°
Exits shadow 06:20:30 17° 279° (W) 3,165 10.0 -13.7°
Maximum altitude 06:28:01 65° 358° (N) 1,657 9.1 -12.3°
Drops below altitude 10° 06:37:22 10° 80° (E) 3,732 12.3 -10.6°
Sets 06:40:30 0° 84° (E) 4,732 13.3 -10.0°
